Find Starlink 11310

NORAD ID: 61212 Int'l Des: 2024-171 Owner: SPXS Country: US Constellation: starlink operational
LEOCIRCULAR

实时位置

正在加载3D地球...

关于 Starlink 11310

正在加载描述...

即将过境

Passes for default location (London). Set your location on the main map for personalized predictions.

高度历史

Loading altitude history...

两行轨道根数

1 61212U 24171N 26125.72636442 .00005719 00000-0 52016-4 0 9997
2 61212 53.1586 255.3313 0000677 61.8812 298.2275 15.69712231 93352
Epoch: May 5, 2026 • Age: 12 hours

当前状态

高度 360.9 km
速度 7.69 km/s
星下点 -3.35°S, 58.37°W
发射日期 Sep 20, 2024
运行时间 1.6 years
类型 internet

技术详情

分类 Payload
质量 960.00 kg
干质量 910.00 kg
总质量 960.00 kg
长度 0.30 m
直径 4.10 m
跨度 29.00 m
形状 Box + pan
制造商 SPXS
平台类型 Starlink V2MD
阶段状态 In Orbit
所有者/国家 SPXS/US

Most Searched